Location: ??????
(41.3747°N, 22.5491°E)
Time: 04:54:28
(UTC+00:00)

Cosmos 1943 - Pass Details

Date: 01 December 2020
Orbit: 832 x 851 km, 71.0° (Epoch: 20 January)

Event Time Altitude Azimuth Distance (km) Brightness Sun altitude
Rises 16:05:59 0° 184° (S) 3,374 6.7 -12.0°
Reaches altitude 10° 16:08:29 10° 179° (S) 2,447 5.8 -12.4°
Maximum altitude 16:13:49 46° 107° (ESE) 1,114 3.5 -13.4°
Enters shadow 16:18:26 14° 38° (NE) 2,199 4.9 -14.2°
